Tracking 19177 objects as of 24-May-2018
HD Live streaming from Space Station
objects crossing your sky now

NOAA 16 DEB

Track NOAA 16 DEB now!
10-day predictions


NORAD ID: 41095
Int'l Code: 2000-055BE
Perigee: 769.9 km
Apogee: 843.1 km
Inclination: 99.0 °
Period: 100.9 minutes
Semi major axis: 7177 km
RCS: Unknown
Launch date: September 21, 2000
Source: United States (US)
Launch site: AIR FORCE WESTERN TEST RANGE (AFWTR)

Note: This is SATELLITE DEBRIS
aabbcc
Your satellite tracking list
Your tracking list is empty




NASA's NSSDC Master Catalog

Two Line Element Set (TLE):
1 41095U 00055BE  18143.14153901 +.00002140 +00000-0 +87386-3 0  9992
2 41095 098.9880 247.6859 0050982 018.1082 342.1899 14.27731860128778
Source of the keplerian elements: AFSPC